{"data":{"norad_id":53400,"epoch":"2026-09-20T04:46:54.196896Z","epoch_age_seconds":101383,"freshness":"FRESH","line1":"1 53400U 22097N   26263.19923839 -.00006176  00000+0 -16613-3 0  9996","line2":"2 53400  53.1601 323.0999 0001211 100.3594 259.7546 15.35427274227988","mean_motion":15.35427274,"eccentricity":0.0001211,"inclination_deg":53.1601,"raan_deg":323.0999,"arg_perigee_deg":100.3594,"mean_anomaly_deg":259.7546,"bstar":-0.00016613,"rev_number":22798,"period_min":93.784969459908,"perigee_km":458.82361163176,"apogee_km":460.47972404711,"semimajor_km":6837.7886678394,"source":"CELESTRAK","updated_at":"2026-09-20T09:00:40.225441Z"}}